Weather History for Fort Drum, NY

Change the Weather History Date:

Monday, January 28, 2013

  Actual Average Record
Temperature  
Mean Temperature 24 °F -  
Max Temperature 30 °F 24 °F 46 °F (2002)
Min Temperature 17 °F 7 °F -16 °F (2003)
Degree Days  
Heating Degree Days 42    
Moisture  
Dew Point 23 °F    
Average Humidity 92    
Maximum Humidity 100    
Minimum Humidity 60    
Precipitation  
Precipitation 0.00 in - - ()
Snow  
Snow 0.00 in - - ()
Snow Depth 3.00 in    
Sea Level Pressure  
Sea Level Pressure 30.03 in    
Wind  
Wind Speed 13 mph (SE)    
Max Wind Speed 22 mph    
Max Gust Speed 30 mph    
Visibility 4 miles    
Events Fog , Rain , Snow    
Averages and records for this station are not official NWS values.
T = Trace of Precipitation, MM = Missing Value Source: NWS Daily Summary

Daily Weather History Graph

Daily Weather History Graph

Search for Another Location

Airport:

Trip Planner

Search our weather history database for the weather conditions in past years. The results will help you decide how hot, cold, wet, or windy it might be!

Date:

Astronomy

Jan. 28, 2013 Rise Set
Actual Time 7:24 AM EST 5:07 PM EST
Civil Twilight 6:53 AM EST 5:38 PM EST
Nautical Twilight 6:18 AM EST 6:13 PM EST
Astronomical Twilight 5:44 AM EST 6:47 PM EST
Moon 7:06 PM EST 7:43 AM EST
Length of Visible Light 10h 45m
Length of Day
9h 43m
Full, 98% of the Moon is Illuminated
Jan 28
Full
Feb 3
Last Quarter
Feb 10
New
Feb 17
First Quarter
Feb 25
Full

Hourly Weather History & Observations

Time (EST) Temp. Windchill Dew Point Humidity Pressure Visibility Wind Dir Wind Speed Gust Speed Precip Events Conditions
12:55 AM 17.2 °F 5.2 °F 5.9 °F 61% 30.43 in 10.0 mi SE 10.4 mph - N/A   Overcast
1:55 AM 18.0 °F 6.9 °F 6.3 °F 60% 30.40 in 10.0 mi SE 9.2 mph - N/A   Overcast
3:55 AM 19.2 °F 6.4 °F 8.1 °F 62% 30.34 in 10.0 mi SE 12.7 mph - N/A   Overcast
4:55 AM 20.1 °F 6.9 °F 9.1 °F 62% 30.31 in 10.0 mi SE 13.8 mph - N/A   Clear
5:00 AM 20.1 °F 6.9 °F 9.1 °F 62% 30.26 in 10.0 mi SE 13.8 mph - N/A   Overcast
5:55 AM 21.2 °F 8.9 °F 9.3 °F 60% 30.30 in 10.0 mi SE 12.7 mph - N/A   Overcast
6:56 AM 21.2 °F 9.5 °F 11.1 °F 65% 30.27 in 10.0 mi SE 11.5 mph - N/A   Overcast
7:57 AM 21.2 °F 8.9 °F 14.0 °F 74% 30.19 in 2.0 mi SE 12.7 mph - N/A Snow Light Snow
8:19 AM 21.2 °F 8.3 °F 17.6 °F 86% 30.23 in 2.0 mi SE 13.8 mph - N/A Snow Light Snow
8:26 AM 21.2 °F 7.8 °F 17.6 °F 86% 30.22 in 1.8 mi SE 15.0 mph - N/A Snow Light Snow
8:29 AM 21.2 °F 7.8 °F 17.6 °F 86% 30.22 in 1.5 mi SE 15.0 mph - N/A Snow Light Snow
8:31 AM 21.2 °F 8.3 °F 17.6 °F 86% 30.22 in 1.2 mi SE 13.8 mph - N/A Snow Light Snow
8:35 AM 21.2 °F 7.8 °F 17.6 °F 86% 30.22 in 1.0 mi SE 15.0 mph - N/A Snow Light Snow
8:52 AM 21.2 °F 7.8 °F 19.4 °F 93% 30.20 in 1.2 mi SE 15.0 mph - N/A Snow Light Snow
8:55 AM 20.8 °F 7.9 °F 19.0 °F 93% 30.20 in 1.5 mi SE 13.8 mph - 0.00 in Snow Light Snow
9:03 AM 21.2 °F 7.8 °F 19.4 °F 93% 30.19 in 1.2 mi SE 15.0 mph - N/A Snow Light Snow
9:08 AM 21.2 °F 7.3 °F 19.4 °F 93% 30.19 in 1.5 mi SE 16.1 mph - N/A Snow Light Snow
9:15 AM 21.2 °F 7.3 °F 19.4 °F 93% 30.18 in 2.0 mi SE 16.1 mph - N/A Snow Light Snow
9:19 AM 21.2 °F 7.3 °F 19.4 °F 93% 30.18 in 2.5 mi SE 16.1 mph - N/A Snow Light Snow
9:21 AM 21.2 °F 6.4 °F 19.4 °F 93% 30.18 in 3.0 mi SE 18.4 mph - N/A Snow Light Snow
9:23 AM 21.2 °F 7.3 °F 19.4 °F 93% 30.18 in 4.0 mi SE 16.1 mph - N/A Snow Light Snow
9:33 AM 21.2 °F 6.4 °F 19.4 °F 93% 30.19 in 7.0 mi SSE 18.4 mph - N/A Snow Light Snow
9:34 AM 21.2 °F 6.4 °F 19.4 °F 93% 30.18 in 8.0 mi SSE 18.4 mph - N/A   Mostly Cloudy
9:35 AM 21.2 °F 6.0 °F 19.4 °F 93% 30.18 in 8.0 mi SSE 19.6 mph - N/A   Scattered Clouds
9:47 AM 23.0 °F 9.2 °F 19.4 °F 86% 30.17 in 9.0 mi SE 17.3 mph - N/A   Partly Cloudy
9:55 AM 22.6 °F 8.7 °F 19.6 °F 88% 30.17 in 9.0 mi SE 17.3 mph - 0.00 in   Scattered Clouds
10:00 AM 23.0 °F 9.6 °F 19.4 °F 86% 30.17 in 9.0 mi SSE 16.1 mph - N/A   Mostly Cloudy
10:08 AM 23.0 °F 8.7 °F 19.4 °F 86% 30.16 in 6.0 mi SE 18.4 mph - N/A   Mostly Cloudy
10:09 AM 23.0 °F 9.6 °F 19.4 °F 86% 30.16 in 5.0 mi SE 16.1 mph - N/A Snow Blowing Snow
10:13 AM 23.0 °F 9.6 °F 19.4 °F 86% 30.16 in 2.5 mi SSE 16.1 mph - N/A Snow Blowing Snow
10:15 AM 23.0 °F 9.6 °F 19.4 °F 86% 30.15 in 2.0 mi SSE 16.1 mph - N/A Snow Blowing Snow
10:17 AM 23.0 °F 8.7 °F 19.4 °F 86% 30.15 in 1.8 mi SSE 18.4 mph 24.2 mph N/A Snow Blowing Snow
10:23 AM 23.0 °F 9.2 °F 19.4 °F 86% 30.14 in 1.5 mi SSE 17.3 mph 24.2 mph N/A   Overcast
10:32 AM 23.0 °F 8.7 °F 19.4 °F 86% 30.13 in 2.0 mi SE 18.4 mph 24.2 mph N/A Snow Light Snow
10:38 AM 23.0 °F 8.7 °F 19.4 °F 86% 30.12 in 2.5 mi SSE 18.4 mph 24.2 mph N/A   Overcast
10:43 AM 23.0 °F 8.7 °F 19.4 °F 86% 30.12 in 3.0 mi SE 18.4 mph 25.3 mph N/A   Overcast
10:52 AM 23.0 °F 9.2 °F 19.4 °F 86% 30.11 in 6.0 mi SE 17.3 mph - N/A   Haze
10:55 AM 23.7 °F 9.3 °F 19.2 °F 83% 30.11 in 8.0 mi SE 19.6 mph 26.5 mph 0.00 in   Mostly Cloudy
10:56 AM 23.0 °F 9.2 °F 19.4 °F 86% 30.11 in 8.0 mi SSE 17.3 mph 26.5 mph N/A   Mostly Cloudy
11:21 AM 24.8 °F 10.3 °F 19.4 °F 80% 30.09 in 6.0 mi SSE 20.7 mph 28.8 mph N/A   Haze
11:33 AM 24.8 °F 10.7 °F 19.4 °F 80% 30.08 in 5.0 mi SSE 19.6 mph 28.8 mph N/A   Mostly Cloudy
11:39 AM 24.8 °F 10.3 °F 19.4 °F 80% 30.07 in 2.5 mi SSE 20.7 mph 29.9 mph N/A   Overcast
11:42 AM 24.8 °F 11.1 °F 19.4 °F 80% 30.07 in 2.0 mi SSE 18.4 mph 29.9 mph N/A   Overcast
11:45 AM 24.8 °F 10.0 °F 21.2 °F 86% 30.06 in 1.8 mi SSE 21.9 mph 29.9 mph N/A   Overcast
11:50 AM 24.8 °F 11.5 °F 21.2 °F 86% 30.06 in 1.2 mi SSE 17.3 mph - N/A Snow Light Snow
11:55 AM 24.1 °F 10.1 °F 21.2 °F 89% 30.06 in 1.2 mi SE 18.4 mph - 0.00 in Snow Light Snow
11:56 AM 24.8 °F 11.5 °F 21.2 °F 86% 30.06 in 1.0 mi SE 17.3 mph - N/A Snow Light Snow
11:57 AM 24.8 °F 11.5 °F 21.2 °F 86% 30.06 in 1.0 mi SSE 17.3 mph - N/A Snow Light Snow
12:01 PM 24.8 °F 11.9 °F 21.2 °F 86% 30.05 in 1.2 mi SSE 16.1 mph - N/A Snow Light Snow
12:05 PM 24.8 °F 10.7 °F 21.2 °F 86% 30.05 in 1.5 mi SSE 19.6 mph - N/A Snow Light Snow
12:16 PM 24.8 °F 11.9 °F 21.2 °F 86% 30.04 in 1.2 mi SSE 16.1 mph - N/A Snow Light Snow
12:18 PM 24.8 °F 10.7 °F 21.2 °F 86% 30.04 in 1.0 mi SE 19.6 mph 23.0 mph N/A Snow Light Snow
12:20 PM 24.8 °F 11.9 °F 23.0 °F 93% 30.04 in 1.0 mi SSE 16.1 mph 23.0 mph N/A Snow Light Snow
12:22 PM 24.8 °F 11.5 °F 23.0 °F 93% 30.04 in 0.8 mi SE 17.3 mph 23.0 mph N/A Snow Light Snow
12:23 PM 24.8 °F 11.5 °F 23.0 °F 93% 30.03 in 0.8 mi SSE 17.3 mph 23.0 mph N/A Snow Light Snow
12:24 PM 24.8 °F 11.9 °F 23.0 °F 93% 30.03 in 0.8 mi SSE 16.1 mph 23.0 mph N/A Snow Light Snow
12:25 PM 24.8 °F 11.5 °F 23.0 °F 93% 30.03 in 0.8 mi SSE 17.3 mph 23.0 mph N/A Snow Light Snow
12:26 PM 24.8 °F 11.5 °F 23.0 °F 93% 30.03 in 0.5 mi SSE 17.3 mph - N/A Fog , Snow Light Freezing Fog
12:32 PM 24.8 °F 11.9 °F 23.0 °F 93% 30.03 in 0.5 mi SSE 16.1 mph - N/A Fog , Snow Light Freezing Fog
12:34 PM 24.8 °F 11.5 °F 23.0 °F 93% 30.03 in 0.8 mi SE 17.3 mph - N/A Snow Light Snow
12:35 PM 24.8 °F 11.5 °F 23.0 °F 93% 30.03 in 0.8 mi SSE 17.3 mph - N/A Snow Light Snow
12:40 PM 24.8 °F 12.4 °F 23.0 °F 93% 30.02 in 0.8 mi SE 15.0 mph - N/A Snow Light Snow
12:42 PM 24.8 °F 12.4 °F 23.0 °F 93% 30.02 in 0.8 mi SE 15.0 mph - N/A Snow Light Snow
12:43 PM 24.8 °F 11.9 °F 23.0 °F 93% 30.02 in 1.0 mi SE 16.1 mph - N/A Snow Light Snow
12:46 PM 24.8 °F 12.4 °F 23.0 °F 93% 30.02 in 1.2 mi SSE 15.0 mph - N/A Snow Light Snow
12:47 PM 24.8 °F 12.4 °F 23.0 °F 93% 30.02 in 1.2 mi SSE 15.0 mph - N/A Snow Light Snow
12:48 PM 24.8 °F 12.9 °F 23.0 °F 93% 30.02 in 1.5 mi SE 13.8 mph - N/A Snow Light Snow
12:51 PM 24.8 °F 12.4 °F 23.0 °F 93% 30.01 in 2.0 mi SE 15.0 mph - N/A Snow Light Snow
12:55 PM 24.6 °F 12.7 °F 23.4 °F 95% 30.01 in 2.0 mi SE 13.8 mph - 0.00 in Snow Light Snow
12:58 PM 24.8 °F 12.9 °F 23.0 °F 93% 30.01 in 1.8 mi SSE 13.8 mph - N/A Snow Light Snow
1:02 PM 24.8 °F 11.9 °F 23.0 °F 93% 30.01 in 1.2 mi SSE 16.1 mph 23.0 mph N/A Snow Light Snow
1:11 PM 24.8 °F 13.4 °F 23.0 °F 93% 30.01 in 1.5 mi SSE 12.7 mph - N/A Snow Light Snow
1:33 PM 24.8 °F 12.9 °F 23.0 °F 93% 29.98 in 1.2 mi SSE 13.8 mph - N/A Snow Light Snow
1:39 PM 24.8 °F 12.9 °F 24.8 °F 100% 29.98 in 1.5 mi SSE 13.8 mph - N/A Snow Light Snow
1:45 PM 24.8 °F 12.9 °F 24.8 °F 100% 29.97 in 2.0 mi SE 13.8 mph - N/A Snow Light Snow
1:55 PM 25.3 °F 13.1 °F 24.4 °F 96% 29.96 in 2.0 mi SE 15.0 mph - 0.00 in Snow Light Snow
1:58 PM 24.8 °F 12.9 °F 24.8 °F 100% 29.96 in 2.5 mi SSE 13.8 mph - N/A Snow Light Snow
2:02 PM 24.8 °F 12.9 °F 24.8 °F 100% 29.96 in 3.0 mi SSE 13.8 mph - N/A Snow Light Snow
2:09 PM 26.6 °F 14.3 °F 24.8 °F 93% 29.96 in 3.0 mi SSE 16.1 mph - N/A   Overcast
2:18 PM 26.6 °F 14.7 °F 24.8 °F 93% 29.96 in 2.5 mi SSE 15.0 mph - N/A Snow Light Snow
2:25 PM 26.6 °F 14.7 °F 24.8 °F 93% 29.96 in 3.0 mi SSE 15.0 mph - N/A Snow Light Snow
2:36 PM 26.6 °F 15.7 °F 24.8 °F 93% 29.96 in 7.0 mi SSE 12.7 mph - N/A   Overcast
2:42 PM 26.6 °F 15.2 °F 24.8 °F 93% 29.94 in 8.0 mi SSE 13.8 mph - N/A   Overcast
2:53 PM 26.6 °F 15.2 °F 24.8 °F 93% 29.94 in 6.0 mi SSE 13.8 mph - N/A Snow Light Snow
2:55 PM 26.6 °F 15.2 °F 25.5 °F 96% 29.94 in 5.0 mi SSE 13.8 mph - 0.00 in Snow Light Snow
3:01 PM 26.6 °F 15.2 °F 26.6 °F 100% 29.94 in 5.0 mi SSE 13.8 mph - N/A Snow Light Snow
3:17 PM 26.6 °F 16.2 °F 26.6 °F 100% 29.93 in 3.0 mi SSE 11.5 mph - N/A Rain Light Freezing Rain
3:29 PM 26.6 °F 16.8 °F 26.6 °F 100% 29.93 in 4.0 mi SSE 10.4 mph - N/A Rain Light Freezing Rain
3:55 PM 26.8 °F 17.1 °F 26.4 °F 99% 29.93 in 6.0 mi SE 10.4 mph - 0.00 in Snow Light Snow
4:14 PM 26.6 °F 15.7 °F 26.6 °F 100% 29.92 in 2.5 mi SE 12.7 mph - N/A Snow Light Snow
4:15 PM 26.6 °F 16.2 °F 26.6 °F 100% 29.91 in 2.0 mi SE 11.5 mph - N/A Snow Light Snow
4:16 PM 26.6 °F 16.2 °F 26.6 °F 100% 29.91 in 1.8 mi SE 11.5 mph - N/A Snow Light Snow
4:17 PM 26.6 °F 16.8 °F 26.6 °F 100% 29.91 in 1.5 mi SE 10.4 mph - N/A Snow Light Snow
4:18 PM 26.6 °F 17.5 °F 26.6 °F 100% 29.91 in 1.2 mi SE 9.2 mph - N/A Snow Light Snow
4:20 PM 26.6 °F 16.2 °F 26.6 °F 100% 29.91 in 1.0 mi SE 11.5 mph - N/A Snow Light Snow
4:21 PM 26.6 °F 16.8 °F 26.6 °F 100% 29.91 in 1.0 mi SE 10.4 mph - N/A Snow Light Snow
4:27 PM 26.6 °F 15.2 °F 26.6 °F 100% 29.91 in 1.0 mi SE 13.8 mph - N/A Snow Light Snow
4:30 PM 26.6 °F 15.2 °F 26.6 °F 100% 29.91 in 1.2 mi SE 13.8 mph - N/A Snow Light Snow
4:32 PM 26.6 °F 15.7 °F 26.6 °F 100% 29.91 in 1.5 mi SE 12.7 mph - N/A Snow Light Snow
4:36 PM 26.6 °F 16.8 °F 26.6 °F 100% 29.91 in 2.0 mi SE 10.4 mph - N/A Snow Light Snow
4:38 PM 26.6 °F 16.8 °F 26.6 °F 100% 29.91 in 2.5 mi SE 10.4 mph - N/A Snow Light Snow
4:41 PM 26.6 °F 16.2 °F 26.6 °F 100% 29.91 in 3.0 mi SE 11.5 mph - N/A Snow Light Snow
4:53 PM 26.6 °F 15.7 °F 26.6 °F 100% 29.91 in 4.0 mi SE 12.7 mph - N/A   Overcast
4:55 PM 27.3 °F 16.6 °F 27.1 °F 99% 29.91 in 4.0 mi SE 12.7 mph - 0.00 in   Overcast
4:57 PM 26.6 °F 16.8 °F 26.6 °F 100% 29.91 in 4.0 mi SE 10.4 mph - N/A Rain Light Freezing Rain
4:59 PM 26.6 °F 15.2 °F 26.6 °F 100% 29.86 in 1.2 mi SE 13.8 mph - N/A Snow Light Snow
5:01 PM 28.4 °F 19.1 °F 26.6 °F 93% 29.86 in 1.5 mi SE 10.4 mph - N/A Rain Light Freezing Rain
5:38 PM 28.4 °F 19.1 °F 28.4 °F 100% 29.91 in 10.0 mi SE 10.4 mph - N/A   Overcast
5:44 PM 28.4 °F 19.1 °F 28.4 °F 100% 29.91 in 10.0 mi SE 10.4 mph - N/A   Light Freezing Rain
5:55 PM 28.2 °F 19.5 °F 27.9 °F 99% 29.91 in 9.0 mi SE 9.2 mph - 0.00 in   Overcast
6:01 PM 28.4 °F 19.1 °F 28.4 °F 100% 29.91 in 8.0 mi SE 10.4 mph - N/A   Overcast
6:03 PM 28.4 °F 19.1 °F 28.4 °F 100% 29.91 in 8.0 mi SE 10.4 mph - N/A Rain Light Freezing Rain
6:43 PM 28.4 °F 21.2 °F 28.4 °F 100% 29.92 in 5.0 mi SE 6.9 mph - N/A Rain Light Freezing Rain
6:48 PM 28.4 °F 22.2 °F 28.4 °F 100% 29.91 in 5.0 mi SE 5.8 mph - N/A Rain Light Freezing Rain
6:55 PM 28.6 °F 21.5 °F 28.4 °F 99% 29.91 in 4.0 mi SE 6.9 mph - 0.00 in Rain Light Freezing Rain
6:57 PM 28.4 °F 21.2 °F 28.4 °F 100% 29.91 in 4.0 mi ESE 6.9 mph - N/A Rain Light Freezing Rain
7:10 PM 28.4 °F 21.2 °F 28.4 °F 100% 29.91 in 5.0 mi SE 6.9 mph - N/A Rain Light Freezing Rain
7:12 PM 28.4 °F 21.2 °F 28.4 °F 100% 29.91 in 5.0 mi SE 6.9 mph - N/A Rain Light Freezing Rain
7:16 PM 28.4 °F 20.4 °F 28.4 °F 100% 29.91 in 6.0 mi SE 8.1 mph - N/A Rain Light Freezing Rain
7:36 PM 28.4 °F 19.7 °F 28.4 °F 100% 29.91 in 10.0 mi SE 9.2 mph - N/A Rain Light Freezing Rain
7:41 PM 28.4 °F 20.4 °F 28.4 °F 100% 29.91 in 8.0 mi SE 8.1 mph - N/A Rain Light Freezing Rain
7:55 PM 28.9 °F 22.8 °F 28.8 °F 99% 29.91 in 6.0 mi SE 5.8 mph - 0.00 in   Light Freezing Drizzle
7:59 PM 28.4 °F 23.3 °F 28.4 °F 100% 29.91 in 6.0 mi SE 4.6 mph - N/A Rain Light Freezing Rain
8:16 PM 28.4 °F 23.3 °F 28.4 °F 100% 29.92 in 6.0 mi SE 4.6 mph - N/A   Light Freezing Drizzle
8:23 PM 30.2 °F 24.3 °F 28.4 °F 93% 29.91 in 6.0 mi SE 5.8 mph - N/A   Light Freezing Drizzle
8:50 PM 30.2 °F 25.4 °F 28.4 °F 93% 29.92 in 5.0 mi SE 4.6 mph - N/A   Overcast
8:55 PM 29.5 °F 23.4 °F 29.3 °F 99% 29.92 in 4.0 mi SE 5.8 mph - 0.00 in   Overcast
8:57 PM 30.2 °F 25.4 °F 28.4 °F 93% 29.92 in 4.0 mi SSE 4.6 mph - N/A   Overcast
8:58 PM 30.2 °F 25.4 °F 28.4 °F 93% 29.92 in 4.0 mi SSE 4.6 mph - N/A   Overcast
9:08 PM 30.2 °F 25.4 °F 30.2 °F 100% 29.93 in 4.0 mi SE 4.6 mph - N/A   Overcast
9:12 PM 30.2 °F 25.4 °F 30.2 °F 100% 29.93 in 4.0 mi SE 4.6 mph - N/A   Overcast
9:15 PM 30.2 °F 25.4 °F 30.2 °F 100% 29.93 in 4.0 mi SE 4.6 mph - N/A   Overcast
9:29 PM 30.2 °F - 30.2 °F 100% 29.93 in 5.0 mi Calm Calm - N/A   Overcast
9:41 PM 30.2 °F - 30.2 °F 100% 29.94 in 5.0 mi Calm Calm - N/A   Overcast
9:44 PM 30.2 °F - 30.2 °F 100% 29.94 in 5.0 mi Calm Calm - N/A   Overcast
9:45 PM 30.2 °F - 30.2 °F 100% 29.94 in 5.0 mi Calm Calm - N/A   Overcast
9:55 PM 29.8 °F - 29.8 °F 100% 29.94 in 3.0 mi Calm Calm - 0.00 in   Overcast
10:00 PM 30.2 °F - 30.2 °F 100% 29.94 in 3.0 mi Calm Calm - N/A   Light Freezing Rain
10:55 PM 28.9 °F 22.8 °F 28.9 °F 100% 29.97 in 6.0 mi North 5.8 mph - 0.00 in   Light Freezing Rain
11:01 PM 28.4 °F 23.3 °F 28.4 °F 100% 29.97 in 8.0 mi North 4.6 mph - N/A   Overcast
11:55 PM 26.4 °F 22.4 °F 26.4 °F 100% 29.99 in 10.0 mi North 3.5 mph - 0.00 in   Overcast